{"data":{"norad_id":69370,"epoch":"2026-09-20T04:40:17.171616Z","epoch_age_seconds":55350,"freshness":"FRESH","line1":"1 69370U 26123T   26263.19464319  .00015873  00000+0  47980-3 0  9999","line2":"2 69370  53.1594 143.1175 0001212  86.2491 273.8651 15.34407996 16829","mean_motion":15.34407996,"eccentricity":0.0001212,"inclination_deg":53.1594,"raan_deg":143.1175,"arg_perigee_deg":86.2491,"mean_anomaly_deg":273.8651,"bstar":0.0004798,"rev_number":1682,"period_min":93.847269028439,"perigee_km":461.85036755652,"apogee_km":463.50858146994,"semimajor_km":6840.8164745132,"source":"CELESTRAK","updated_at":"2026-09-20T09:00:44.167873Z"}}